FW1255 Weather Reports


time (UTC)temp
F
wind
direction
speed
knots
gust
knots
rain 1hr
in
rain 24hr
in
rain mn
in
humidity
%
barometer
mb
20260502151551 52 360 10.4 13.0 0.00 0.00 0.00 52 1020.4
20260502123002 36 360 2.6 4.3 0.00 0.00 0.00 83 1021.1
20260502121606 34 360 1.7 3.5 0.00 0.00 0.00 85 1021.1
20260502120119 32 297 1.7 4.3 0.00 0.00 0.00 85 1021.2
20260502114555 31 295 2.6 4.3 0.00 0.00 0.00 83 1021.1
20260502113050 32 297 2.6 4.3 0.00 0.00 0.00 82 1021.0
20260502111547 32 360 2.6 4.3 0.00 0.00 0.00 82 1021.0
20260502110049 32 300 2.6 4.3 0.00 0.00 0.00 82 1021.0
20260502104545 32 299 3.5 6.1 0.00 0.00 0.00 82 1021.0
20260502103044 31 296 3.5 6.1 0.00 0.00 0.00 85 1021.0
20260502101643 32 360 3.5 5.2 0.00 0.00 0.00 83 1021.0
20260502071522 34 360 1.7 3.5 0.00 0.00 0.00 81 1020.9
20260502070022 34 360 1.7 3.5 0.00 0.00 0.00 80 1020.9
20260502064518 35 360 0.9 2.6 0.00 0.00 0.00 78 1021.1
20260502063012 35 360 0.0 1.7 0.00 0.00 0.00 76 1021.1
20260502061509 36 360 1.7 3.5 0.00 0.00 0.00 75 1021.0
20260502060007 36 360 0.0 0.9 0.00 0.00 0.00 75 1021.0
20260502054510 36 360 0.9 1.7 0.00 0.00 0.00 75 1021.0
20260502053003 36 360 0.9 1.7 0.00 0.00 0.00 76 1021.0
20260502051602 37 360 0.0 1.7 0.00 0.00 0.00 74 1021.0
20260502050056 38 360 1.7 3.5 0.00 0.00 0.00 71 1021.0
20260502044555 39 360 0.0 0.0 0.00 0.00 0.00 67 1020.9
20260502043103 39 360 0.9 1.7 0.00 0.00 0.00 68 1020.8
20260502041557 39 360 0.0 0.0 0.00 0.00 0.00 67 1020.8
20260502040104 39 360 0.0 0.0 0.00 0.00 0.00 67 1020.7
20260502034602 39 360 0.0 1.7 0.00 0.00 0.00 66 1020.8
20260502033053 39 360 0.0 1.7 0.00 0.00 0.00 66 1020.9
20260502031552 40 360 0.9 1.7 0.00 0.00 0.00 65 1020.8
20260502030052 40 360 0.0 1.7 0.00 0.00 0.00 65 1020.8
20260502024608 41 360 0.9 1.7 0.00 0.00 0.00 64 1020.7
20260502023048 41 360 0.9 2.6 0.00 0.00 0.00 63 1020.6
20260502021550 42 360 0.9 2.6 0.00 0.00 0.00 62 1020.4
20260502020045 43 360 0.0 2.6 0.00 0.00 0.00 61 1020.1
20260502014543 44 360 1.7 3.5 0.00 0.00 0.00 58 1020.0
20260502013042 46 360 3.5 7.0 0.00 0.00 0.00 55 1019.8
20260502011540 48 360 5.2 9.6 0.00 0.00 0.00 52 1019.7
20260502010049 49 360 6.1 9.6 0.00 0.00 0.00 50 1019.5
20260502004554 49 360 4.3 7.8 0.00 0.00 0.00 50 1019.4
20260502003038 49 360 7.8 10.4 0.00 0.00 0.00 49 1019.3
20260502001538 50 360 9.6 12.2 0.00 0.00 0.00 49 1019.4
20260502000037 51 360 9.6 13.9 0.00 0.00 0.00 46 1019.3
20260501234536 52 360 8.7 13.0 0.00 0.00 0.00 46 1019.3
20260501233039 51 360 9.6 14.8 0.00 0.00 0.00 47 1019.3
20260501231535 51 360 8.7 13.9 0.00 0.00 0.00 49 1019.2
20260501230035 52 360 8.7 15.6 0.00 0.00 0.00 46 1019.1
20260501224535 52 360 10.4 13.9 0.00 0.00 0.00 47 1019.1
20260501223034 52 360 7.0 14.8 0.00 0.00 0.00 48 1019.1
20260501221532 51 360 8.7 13.9 0.00 0.00 0.00 50 1019.1
20260501220036 51 360 5.2 12.2 0.00 0.00 0.00 49 1019.1
20260501214530 52 360 7.8 12.2 0.00 0.00 0.00 48 1019.0
20260501213043 50 360 3.5 14.8 0.00 0.00 0.00 52 1019.2
20260501211529 50 360 5.2 11.3 0.00 0.00 0.00 51 1019.2
20260501210039 51 355 7.8 16.5 0.00 0.00 0.00 49 1019.3
20260501204530 51 360 7.8 13.9 0.00 0.00 0.00 49 1019.4
20260501203027 50 360 5.2 13.9 0.00 0.00 0.00 51 1019.5
20260501201531 49 10 7.0 12.2 0.00 0.00 0.00 52 1019.5
20260501200024 50 360 4.3 13.0 0.00 0.00 0.00 51 1019.5
20260501194532 51 360 7.8 16.5 0.00 0.00 0.00 51 1019.5
20260501193024 50 300 8.7 17.4 0.00 0.00 0.00 51 1019.4
20260501191520 49 360 6.1 11.3 0.00 0.00 0.00 51 1019.6
20260501190018 49 360 8.7 13.0 0.00 0.00 0.00 54 1019.5
20260501184516 49 360 7.0 13.0 0.00 0.00 0.00 58 1019.5
20260501183014 48 360 9.6 15.6 0.00 0.00 0.00 55 1019.4
20260501181512 47 360 8.7 13.9 0.00 0.00 0.00 56 1019.6
20260501180012 48 355 12.2 16.5 0.00 0.00 0.00 56 1019.5
20260501174509 47 360 7.0 13.9 0.00 0.00 0.00 59 1019.6
20260501173008 47 360 10.4 16.5 0.00 0.00 0.00 60 1019.6
20260501171506 47 360 12.2 15.6 0.00 0.00 0.00 59 1019.7
20260501170005 46 11 7.8 15.6 0.00 0.00 0.00 62 1019.6
20260501164503 46 360 8.7 15.6 0.00 0.00 0.00 62 1019.4
20260501163003 46 360 8.7 15.6 0.00 0.00 0.00 62 1019.3
20260501161601 47 360 11.3 16.5 0.00 0.00 0.00 62 1019.4